Shoreham, United Kingdom

12:01 PM GMT on January 23, 2017 (GMT +0000)
Shoreham

Weather History for EGKA - November, 2012

Change the Weather History Date:

Thursday, November 15, 2012

  Actual Average Record
Temperature  
Mean Temperature 46 °F -  
Max Temperature 49 °F 48 °F 62 °F (2005)
Min Temperature 42 °F 40 °F 32 °F (1996)
Degree Days  
Heating Degree Days 20    
Moisture  
Dew Point 42 °F    
Average Humidity 81    
Maximum Humidity 87    
Minimum Humidity 70    
Precipitation  
Precipitation 0.00 in - - ()
Sea Level Pressure  
Sea Level Pressure 30.18 in    
Wind  
Wind Speed 6 mph ()    
Max Wind Speed 9 mph    
Max Gust Speed -    
Visibility 3.5 miles    
Events      
Averages and records for this station are not official NWS values.
T = Trace of Precipitation, MM = Missing Value Source: Averaged Metar Reports

Daily Weather History Graph

Daily Weather History Graph

Search for Another Location

Airport or City:

Trip Planner

Search our weather history database for the weather conditions in past years. The results will help you decide how hot, cold, wet, or windy it might be!

Date:

Astronomy

Nov. 15, 2012 Rise Set
Actual Time 7:17 AM GMT 4:13 PM GMT
Civil Twilight 6:40 AM GMT 4:50 PM GMT
Nautical Twilight 6:00 AM GMT 5:30 PM GMT
Astronomical Twilight 5:21 AM GMT 6:08 PM GMT
Moon 9:05 AM GMT (11/15) 5:40 PM GMT (11/15)
Length of Visible Light 10h 09m
Length of Day
8h 56m
Waxing Crescent, 4% of the Moon is Illuminated
Nov 15
Waxing Crescent
Nov 20
First Quarter
Nov 28
Full
Dec 6
Last Quarter
Dec 13
New

Hourly Weather History & Observations

Time (GMT) Temp. Windchill Dew Point Humidity Pressure Visibility Wind Dir Wind Speed Gust Speed Precip Events Conditions
2:50 AM 47 °F - 43 °F 80% 30.25 in - ENE 6.9 mph - -  
5:50 AM 46 °F - 42 °F 82% 30.23 in - ENE 5.8 mph - -  
7:50 AM 46.4 °F 42.9 °F 41.0 °F 81% 30.24 in 2.5 mi ENE 6.9 mph - N/A   Haze
8:20 AM 46.4 °F 42.9 °F 42.8 °F 87% 30.21 in 2.5 mi ENE 6.9 mph - N/A   Haze
8:50 AM 47 °F - 42 °F 76% 30.23 in - ENE 6.9 mph - -  
8:50 AM 48.2 °F - 42.8 °F 82% 30.21 in 2.5 mi ENE 6.9 mph - N/A   Haze
9:20 AM 48.2 °F - 42.8 °F 82% 30.21 in 2.8 mi ENE 5.8 mph - N/A   Haze
9:50 AM 48.2 °F - 42.8 °F 82% 30.21 in 2.8 mi ENE 4.6 mph - N/A   Haze
10:20 AM 48.2 °F - 42.8 °F 82% 30.21 in 3.1 mi East 8.1 mph - N/A   Haze
10:50 AM 48.2 °F - 42.8 °F 82% 30.21 in 3.7 mi East 8.1 mph - N/A   Mostly Cloudy
11:20 AM 48.2 °F - 42.8 °F 82% 30.21 in 3.7 mi ESE 8.1 mph - N/A   Mostly Cloudy
11:50 AM 49 °F - 43 °F 73% 30.20 in - SE 6.9 mph - -  
11:50 AM 48.2 °F - 42.8 °F 82% 30.18 in 3.7 mi SE 6.9 mph - N/A   Mostly Cloudy
12:20 PM 48.2 °F - 42.8 °F 82% 30.18 in 3.7 mi SE 5.8 mph - N/A   Mostly Cloudy
12:50 PM 50.0 °F - 42.8 °F 76% 30.18 in 3.7 mi ESE 5.8 mph - N/A   Mostly Cloudy
1:20 PM 50.0 °F - 42.8 °F 76% 30.18 in 3.7 mi ESE 5.8 mph - N/A   Mostly Cloudy
1:50 PM 50.0 °F - 42.8 °F 76% 30.15 in 3.7 mi SE 5.8 mph - N/A   Mostly Cloudy
2:20 PM 48.2 °F - 42.8 °F 82% 30.15 in 3.7 mi SE 5.8 mph - N/A   Scattered Clouds
2:50 PM 49 °F - 42 °F 70% 30.15 in - ESE 8.1 mph - -  
2:50 PM 48.2 °F - 42.8 °F 82% 30.15 in 3.7 mi ESE 6.9 mph - N/A   Scattered Clouds
3:20 PM 48.2 °F - 42.8 °F 82% 30.15 in 4.3 mi SE 8.1 mph - N/A   Scattered Clouds
3:50 PM 46.4 °F 41.9 °F 42.8 °F 87% 30.12 in 4.3 mi ESE 9.2 mph - N/A   Scattered Clouds
4:20 PM 46.4 °F 41.9 °F 41.0 °F 81% 30.15 in 3.7 mi ESE 9.2 mph - N/A   Scattered Clouds
4:50 PM 46.4 °F 42.4 °F 41.0 °F 81% 30.15 in 3.7 mi ESE 8.1 mph - N/A   Scattered Clouds
5:20 PM 44.6 °F 40.7 °F 39.2 °F 81% 30.15 in 3.7 mi East 6.9 mph - N/A   Scattered Clouds
5:50 PM 44 °F - 40 °F 82% 30.15 in - East 5.8 mph - -  
5:50 PM 44.6 °F 40.7 °F 41.0 °F 87% 30.15 in 3.7 mi East 6.9 mph - N/A   Scattered Clouds
6:20 PM 42.8 °F 38.6 °F 39.2 °F 87% 30.15 in 3.7 mi East 6.9 mph - N/A   Scattered Clouds
6:50 PM 42.8 °F 39.3 °F 39.2 °F 87% 30.12 in 5.0 mi East 5.8 mph - N/A   Scattered Clouds
8:50 PM 46 °F - 41 °F 77% 30.12 in - ESE 6.9 mph - -  
11:50 PM 44 °F - 41 °F 86% 30.10 in - North 5.8 mph - -